Find Starlink 31868

NORAD ID: 59783 Int'l Des: 2024-093 Owner: SPXS Country: US Constellation: starlink operational
LEOCIRCULAR

現在のビュー

3D地球を読み込み中...

About Starlink 31868

Starlink 31868 (NORAD 59783) is a starlink constellation satellite (v2 mini) launched May 18, 2024 by SPXS of US. It operates in LEO, CIRCULAR orbit with a mass of 730.00 kg.

Starlink 31868について

説明を読み込み中...

次回通過

Passes for default location (London). Set your location on the main map for personalized predictions.

高度履歴

Loading altitude history...

軌道要素

1 59783U 24093B 26175.67426025 -.00000638 00000-0 -13677-4 0 9990
2 59783 43.0002 321.4830 0000982 261.6884 98.3857 15.27566724119093
Epoch: Jun 24, 2026 • Age: 24 hours

現在のステータス

高度 482.4 km
速度 7.63 km/s
衛星直下点 4.99°N, 30.51°W
打ち上げ日 May 18, 2024
運用期間 2.1 years
タイプ internet

技術仕様

分類 Payload
質量 730.00 kg
乾燥質量 700.00 kg
総質量 730.00 kg
長さ 0.30 m
直径 4.10 m
スパン 29.00 m
形状 Box + pan
製造者 SPXS
バスタイプ Starlink V2M
フェーズステータス In Orbit
所有者/国 SPXS/US

Most Searched